User: anonymous   Login
Location: Wayah Bald
(35.1806°N, 83.5603°W)
Time: 04:09:49
(UTC-05:00)
Language:

Meteor 1-27 Rocket - Orbit

View from above orbital plane
View from above orbital plane
View from above satellite
View from above satellite

Ground track
Ground track

The orbit data is extracted from the following two-line orbital elements,

1  9904U 77024B   17350.96024419 -.00000029 +00000-0 -24777-4 0  9997
2  9904 081.2619 313.2263 0055655 171.8681 188.3404 14.06854059088274
Epoch (UTC): 16 December 2017 23:02:45
Eccentricity: 0.0055655
inclination: 81.2619°
perigee height: 830 km
apogee height: 910 km
right ascension of ascending node: 313.2263°
argument of perigee: 171.8681°
revolutions per day: 14.06854059
mean anomaly at epoch: 188.3404°
orbit number at epoch: 8827

The dashed part of the orbit path shows where the satellite is in the earth's shadow,  

DLR